EST,Max TemperatureF,Mean TemperatureF,Min TemperatureF,Max Dew PointF,MeanDew PointF,Min DewpointF,Max Humidity, Mean Humidity, Min Humidity, Max Sea Level PressureIn, Mean Sea Level PressureIn, Min Sea Level PressureIn, Max VisibilityMiles, Mean VisibilityMiles, Min VisibilityMiles, Max Wind SpeedMPH, Mean Wind SpeedMPH, Max Gust SpeedMPH,PrecipitationIn, CloudCover, Events, WindDirDegrees
2012-12-1,69,58,46,54,50,46,100,81,53,30.43,30.37,30.34,10,10,10,7,2,,0.00,5,,90
2012-12-2,73,60,46,59,54,46,100,86,53,30.41,30.35,30.30,10,10,10,9,3,,0.00,4,,168
2012-12-3,73,60,48,64,55,50,100,80,50,30.37,30.32,30.28,10,7,0,8,1,,0.00,3,Fog-Rain,231
2012-12-4,71,58,46,63,56,46,100,91,60,30.38,30.31,30.27,10,10,7,9,2,,0.00,4,,196
2012-12-5,71,62,53,59,57,55,100,82,57,30.26,30.20,30.14,10,10,10,14,6,20,0.00,6,,235
2012-12-6,60,54,46,57,48,41,94,77,59,30.25,30.20,30.17,10,10,10,14,9,20,0.00,7,,52
2012-12-7,59,52,46,52,46,41,100,82,71,30.19,30.10,30.03,10,8,0,10,6,,0.00,7,Fog-Rain,35
2012-12-8,68,54,41,59,55,54,100,82,64,30.12,30.08,30.05,10,6,0,6,1,,0.00,5,Fog,197
2012-12-9,68,60,51,66,64,61,100,96,88,30.16,30.10,30.03,10,4,0,7,2,,0.00,6,Fog,207
2012-12-10,73,63,53,64,61,59,100,80,64,30.03,29.89,29.79,10,7,0,16,4,23,0.00,4,Fog-Rain,211
2012-12-11,60,56,51,57,48,43,100,74,59,30.14,29.98,29.80,10,9,0,9,4,,0.00,8,Fog,267
2012-12-12,50,46,41,46,42,37,100,81,66,30.29,30.20,30.12,10,9,2,16,6,22,0.00,7,Rain,21
2012-12-13,51,45,39,43,40,37,100,84,66,30.38,30.33,30.24,10,10,4,16,10,25,0.00,5,Rain,21
2012-12-14,59,46,32,41,37,32,100,79,45,30.42,30.33,30.26,10,10,5,7,1,,0.00,0,,47
2012-12-15,60,48,35,54,41,36,100,76,42,30.28,30.20,30.13,10,10,1,6,2,,0.00,3,,96
2012-12-16,62,58,53,63,62,61,100,100,100,30.12,30.03,29.90,10,5,0,15,3,18,0.00,8,Fog-Rain,178
2012-12-17,59,56,53,,,,,,,29.95,29.86,29.75,10,7,0,14,6,20,0.00,8,Fog-Rain,211
2012-12-18,62,50,39,55,40,34,100,63,36,30.03,29.89,29.78,10,10,7,22,10,28,0.00,2,,250
2012-12-19,68,52,35,45,39,32,100,71,40,30.14,30.09,30.03,10,10,10,13,5,17,0.00,0,,241
2012-12-20,69,52,35,63,48,32,100,80,60,30.14,29.93,29.68,10,10,7,36,6,41,0.00,4,Rain,180
2012-12-21,46,42,37,32,27,21,70,56,45,30.04,29.92,29.83,10,10,10,28,18,40,0.00,1,,267
2012-12-22,57,44,30,27,22,19,69,48,27,30.20,30.14,30.04,10,10,10,15,10,21,0.00,0,,253
2012-12-23,60,44,28,34,29,23,87,57,31,30.22,30.16,30.11,10,10,10,10,4,,0.00,1,,234
2012-12-24,53,48,44,46,36,34,100,66,54,30.13,30.02,29.90,10,8,0,23,5,21,0.00,7,Fog-Rain,188
2012-12-25,51,50,50,,,,,,,30.10,30.03,29.93,10,5,0,10,5,17,0.00,8,Fog-Rain,71
2012-12-26,62,50,37,63,39,32,100,70,55,29.93,29.72,29.58,10,8,1,28,15,43,0.00,6,Rain-Thunderstorm,212
2012-12-27,53,42,32,36,34,32,100,77,47,30.09,30.01,29.87,10,10,10,15,9,20,0.00,0,,263
2012-12-28,51,42,32,41,36,32,100,83,58,30.17,30.09,29.95,10,10,10,8,2,,0.00,2,,79
2012-12-29,51,44,35,46,38,32,100,78,66,30.12,29.91,29.76,10,8,2,24,10,31,0.00,6,Rain,286
2012-12-30,50,39,28,32,29,25,100,68,37,30.45,30.38,30.12,10,10,10,10,5,,0.00,0,,321
2012-12-31,59,44,28,45,36,27,100,74,41,30.46,30.34,30.21,10,10,10,16,4,22,0.00,3,,219